Wrangell, AK

5:11 PM AKDT on April 24, 2018 (GMT -0800)
Wrangell

Weather History for PAWG - November, 2012

Change the Weather History Date:

Thursday, November 29, 2012

  Actual Average Record
Temperature  
Mean Temperature 32 °F -  
Max Temperature 33 °F 39 °F 51 °F (2002)
Min Temperature 30 °F 30 °F 6 °F (1985)
Degree Days  
Heating Degree Days 34    
Moisture  
Dew Point 21 °F    
Average Humidity 66    
Maximum Humidity 80    
Minimum Humidity 55    
Precipitation  
Precipitation 0.00 in - - ()
Sea Level Pressure  
Sea Level Pressure 29.38 in    
Wind  
Wind Speed 16 mph (East)    
Max Wind Speed 22 mph    
Max Gust Speed 32 mph    
Visibility 8 miles    
Events      
Averages and records for this station are not official NWS values.
T = Trace of Precipitation, MM = Missing Value Source: NWS Daily Summary

Daily Weather History Graph

Daily Weather History Graph

Search for Another Location

Airport or City:

Astronomy

Nov. 29, 2012 Rise Set
Actual Time 7:57 AM AKST 3:18 PM AKST
Civil Twilight 7:10 AM AKST 4:04 PM AKST
Nautical Twilight 6:22 AM AKST 4:53 PM AKST
Astronomical Twilight 5:37 AM AKST 5:38 PM AKST
Moon 4:26 PM AKST (11/29) 8:51 AM AKST (11/29)
Length of Visible Light 8h 53m
Length of Day
7h 21m
Full, 99% of the Moon is Illuminated
Nov 29
Full
Dec 6
Last Quarter
Dec 12
New
Dec 19
First Quarter
Dec 28
Full

Hourly Weather History & Observations

Time (AKST) Temp. Windchill Dew Point Humidity Pressure Visibility Wind Dir Wind Speed Gust Speed Precip Events Conditions
12:16 AM 33.8 °F 23.5 °F 21.2 °F 60% 29.45 in 10.0 mi East 16.1 mph 21.9 mph N/A   Overcast
12:36 AM 33.8 °F 23.9 °F 21.2 °F 60% 29.45 in 10.0 mi East 15.0 mph 21.9 mph N/A   Overcast
12:56 AM 33.8 °F 23.9 °F 21.2 °F 60% 29.44 in 10.0 mi East 15.0 mph 25.3 mph N/A   Overcast
1:16 AM 33.8 °F 23.2 °F 21.2 °F 60% 29.44 in 10.0 mi East 17.3 mph 24.2 mph N/A   Overcast
1:36 AM 33.8 °F 22.8 °F 21.2 °F 60% 29.44 in 10.0 mi East 18.4 mph 24.2 mph N/A   Overcast
1:56 AM 33.8 °F 22.8 °F 21.2 °F 60% 29.44 in 7.0 mi East 18.4 mph 24.2 mph N/A   Overcast
2:16 AM 32.0 °F 21.2 °F 19.4 °F 60% 29.44 in 5.0 mi East 16.1 mph 24.2 mph N/A   Overcast
2:36 AM 32.0 °F 20.8 °F 21.2 °F 64% 29.44 in 5.0 mi ESE 17.3 mph 23.0 mph N/A   Overcast
2:56 AM 30.2 °F 18.9 °F 23.0 °F 75% 29.43 in 3.0 mi East 16.1 mph 21.9 mph N/A   Overcast
3:16 AM 30.2 °F 18.1 °F 21.2 °F 69% 29.42 in 3.0 mi ESE 18.4 mph 23.0 mph N/A   Overcast
3:36 AM 30.2 °F 17.8 °F 23.0 °F 75% 29.41 in 4.0 mi ESE 19.6 mph 23.0 mph N/A   Overcast
3:56 AM 30.2 °F 18.5 °F 21.2 °F 69% 29.41 in 6.0 mi ESE 17.3 mph 24.2 mph N/A   Overcast
4:16 AM 32.0 °F 20.5 °F 21.2 °F 64% 29.40 in 5.0 mi East 18.4 mph 27.6 mph N/A   Overcast
4:36 AM 30.2 °F 18.5 °F 21.2 °F 69% 29.40 in 4.0 mi East 17.3 mph 26.5 mph N/A   Overcast
4:56 AM 30.2 °F 18.1 °F 21.2 °F 69% 29.39 in 4.0 mi East 18.4 mph 27.6 mph N/A   Overcast
5:16 AM 32.0 °F 20.8 °F 21.2 °F 64% 29.38 in 9.0 mi East 17.3 mph 24.2 mph N/A   Overcast
5:36 AM 32.0 °F 20.8 °F 21.2 °F 64% 29.38 in 10.0 mi East 17.3 mph 24.2 mph N/A   Overcast
5:56 AM 32.0 °F 23.0 °F 21.2 °F 64% 29.38 in 10.0 mi East 11.5 mph 19.6 mph N/A   Overcast
6:16 AM 32.0 °F 22.1 °F 23.0 °F 69% 29.37 in 10.0 mi East 13.8 mph 19.6 mph N/A   Overcast
6:36 AM 32.0 °F 21.2 °F 21.2 °F 64% 29.36 in 10.0 mi East 16.1 mph 23.0 mph N/A   Overcast
6:56 AM 32.0 °F 20.8 °F 21.2 °F 64% 29.36 in 10.0 mi East 17.3 mph 23.0 mph N/A   Overcast
7:16 AM 30.2 °F 18.9 °F 21.2 °F 69% 29.35 in 10.0 mi ESE 16.1 mph 23.0 mph N/A   Overcast
7:36 AM 30.2 °F 18.5 °F 21.2 °F 69% 29.34 in 5.0 mi East 17.3 mph 23.0 mph N/A   Overcast
7:56 AM 30.2 °F 19.8 °F 23.0 °F 75% 29.35 in 3.0 mi East 13.8 mph 23.0 mph N/A   Overcast
8:16 AM 32.0 °F 21.2 °F 21.2 °F 64% 29.34 in 3.0 mi ESE 16.1 mph 25.3 mph N/A   Overcast
8:36 AM 30.2 °F 21.9 °F 23.0 °F 75% 29.34 in 7.0 mi ENE 9.2 mph 24.2 mph N/A   Overcast
8:56 AM 32.0 °F 21.6 °F 21.2 °F 64% 29.34 in 7.0 mi East 15.0 mph 20.7 mph N/A   Overcast
9:16 AM 32.0 °F 23.6 °F 24.8 °F 75% 29.35 in 7.0 mi East 10.4 mph - N/A   Overcast
9:36 AM 32.0 °F 23.0 °F 21.2 °F 64% 29.34 in 7.0 mi East 11.5 mph 21.9 mph N/A   Overcast
9:56 AM 33.8 °F 25.3 °F 21.2 °F 60% 29.35 in 7.0 mi East 11.5 mph 16.1 mph N/A   Overcast
10:16 AM 33.8 °F 23.9 °F 21.2 °F 60% 29.35 in 7.0 mi ESE 15.0 mph 19.6 mph N/A   Overcast
10:36 AM 33.8 °F 23.5 °F 21.2 °F 60% 29.35 in 7.0 mi East 16.1 mph 24.2 mph N/A   Overcast
10:56 AM 32.0 °F 21.2 °F 21.2 °F 64% 29.35 in 7.0 mi East 16.1 mph - N/A   Overcast
11:16 AM 30.2 °F 17.4 °F 21.2 °F 69% 29.34 in 7.0 mi East 20.7 mph 25.3 mph N/A   Overcast
11:36 AM 30.2 °F 19.8 °F 21.2 °F 69% 29.36 in 7.0 mi East 13.8 mph 21.9 mph N/A   Overcast
11:56 AM 30.2 °F 19.3 °F 21.2 °F 69% 29.35 in 3.0 mi East 15.0 mph 19.6 mph N/A   Overcast
12:16 PM 30.2 °F 19.3 °F 23.0 °F 75% 29.35 in 3.0 mi East 15.0 mph 21.9 mph N/A   Overcast
12:36 PM 30.2 °F 20.2 °F 23.0 °F 75% 29.35 in 3.0 mi East 12.7 mph - N/A   Overcast
12:56 PM 32.0 °F 22.1 °F 21.2 °F 64% 29.36 in 10.0 mi East 13.8 mph 20.7 mph N/A   Overcast
1:16 PM 30.2 °F 19.3 °F 24.8 °F 80% 29.36 in 10.0 mi East 15.0 mph 20.7 mph N/A   Overcast
1:36 PM 30.2 °F 17.8 °F 23.0 °F 75% 29.36 in 10.0 mi East 19.6 mph 24.2 mph N/A   Overcast
1:56 PM 30.2 °F 18.5 °F 21.2 °F 69% 29.36 in 10.0 mi East 17.3 mph 25.3 mph N/A   Overcast
2:16 PM 30.2 °F 17.8 °F 21.2 °F 69% 29.36 in 10.0 mi East 19.6 mph 25.3 mph N/A   Overcast
2:36 PM 30.2 °F 18.9 °F 21.2 °F 69% 29.37 in 10.0 mi East 16.1 mph - N/A   Overcast
2:56 PM 30.2 °F 18.5 °F 23.0 °F 75% 29.37 in 7.0 mi East 17.3 mph 21.9 mph N/A   Overcast
3:16 PM 30.2 °F 17.8 °F 24.8 °F 80% 29.37 in 7.0 mi East 19.6 mph 26.5 mph N/A   Overcast
3:36 PM 30.2 °F 20.2 °F 21.2 °F 69% 29.38 in 7.0 mi East 12.7 mph 20.7 mph N/A   Overcast
3:56 PM 30.2 °F 20.8 °F 23.0 °F 75% 29.38 in 10.0 mi East 11.5 mph 17.3 mph N/A   Overcast
4:16 PM 30.2 °F 18.9 °F 21.2 °F 69% 29.38 in 10.0 mi East 16.1 mph 19.6 mph N/A   Overcast
4:36 PM 30.2 °F 19.3 °F 21.2 °F 69% 29.39 in 10.0 mi East 15.0 mph 21.9 mph N/A   Overcast
4:56 PM 30.2 °F 19.3 °F 21.2 °F 69% 29.39 in 7.0 mi ESE 15.0 mph 23.0 mph N/A   Overcast
5:16 PM 30.2 °F 19.8 °F 19.4 °F 64% 29.38 in 7.0 mi ESE 13.8 mph 25.3 mph N/A   Overcast
5:36 PM 30.2 °F 19.8 °F 19.4 °F 64% 29.39 in 7.0 mi ESE 13.8 mph 19.6 mph N/A   Overcast
5:56 PM 30.2 °F 20.2 °F 19.4 °F 64% 29.39 in 9.0 mi ENE 12.7 mph 19.6 mph N/A   Mostly Cloudy
6:16 PM 30.2 °F 18.1 °F 19.4 °F 64% 29.38 in 9.0 mi ESE 18.4 mph 24.2 mph N/A   Mostly Cloudy
6:36 PM 30.2 °F 20.8 °F 19.4 °F 64% 29.39 in 9.0 mi ESE 11.5 mph 24.2 mph N/A   Mostly Cloudy
6:56 PM 30.2 °F 17.1 °F 19.4 °F 64% 29.36 in 9.0 mi East 21.9 mph 31.1 mph N/A   Overcast
7:16 PM 30.2 °F 17.4 °F 19.4 °F 64% 29.37 in 9.0 mi East 20.7 mph 29.9 mph N/A   Overcast
7:36 PM 30.2 °F 19.3 °F 19.4 °F 64% 29.37 in 9.0 mi ESE 15.0 mph 32.2 mph N/A   Overcast
7:56 PM 32.0 °F 19.8 °F 19.4 °F 60% 29.36 in 9.0 mi East 20.7 mph 26.5 mph N/A   Overcast
8:16 PM 32.0 °F 21.2 °F 19.4 °F 60% 29.38 in 9.0 mi East 16.1 mph 20.7 mph N/A   Overcast
8:36 PM 30.2 °F 17.8 °F 19.4 °F 64% 29.37 in 9.0 mi ESE 19.6 mph 25.3 mph N/A   Overcast
8:56 PM 30.2 °F 19.3 °F 19.4 °F 64% 29.38 in 9.0 mi East 15.0 mph 20.7 mph N/A   Overcast
9:16 PM 32.0 °F 19.8 °F 17.6 °F 55% 29.37 in 9.0 mi ESE 20.7 mph 27.6 mph N/A   Overcast
9:36 PM 32.0 °F 21.2 °F 19.4 °F 60% 29.38 in 9.0 mi East 16.1 mph 23.0 mph N/A   Overcast
9:56 PM 32.0 °F 20.8 °F 19.4 °F 60% 29.39 in 9.0 mi East 17.3 mph 23.0 mph N/A   Overcast
10:16 PM 32.0 °F 21.2 °F 19.4 °F 60% 29.40 in 9.0 mi East 16.1 mph 24.2 mph N/A   Overcast
10:36 PM 30.2 °F 19.8 °F 19.4 °F 64% 29.40 in 9.0 mi East 13.8 mph - N/A   Overcast
10:56 PM 30.2 °F 19.8 °F 19.4 °F 64% 29.40 in 9.0 mi East 13.8 mph 21.9 mph N/A   Overcast
11:16 PM 30.2 °F 17.8 °F 19.4 °F 64% 29.38 in 10.0 mi East 19.6 mph 27.6 mph N/A   Overcast
11:36 PM 30.2 °F 18.9 °F 17.6 °F 60% 29.39 in 10.0 mi East 16.1 mph 26.5 mph N/A   Overcast
11:56 PM 32.0 °F 20.1 °F 19.4 °F 60% 29.39 in 10.0 mi East 19.6 mph 25.3 mph N/A   Overcast